Trenton, NJ

4:21 PM EST on December 09, 2019 (GMT -0500)
Trenton Mercer

Weather History for KTTN - October, 2019

Change the Weather History Date:

Tuesday, October 22, 2019

  Actual Average Record
Temperature  
Mean Temperature 58 °F 52 °F  
Max Temperature 63 °F 63 °F 83 °F (1979)
Min Temperature 53 °F 42 °F 27 °F (1940)
Degree Days  
Heating Degree Days 7 13  
Month to date heating degree days 168 207  
Since 1 July heating degree days 186 272  
Cooling Degree Days 0 0  
Month to date cooling degree days 26 7  
Year to date cooling degree days 1163 962  
Growing Degree Days 8 (Base 50)    
Moisture  
Dew Point 58 °F    
Average Humidity 96    
Maximum Humidity 100    
Minimum Humidity 86    
Precipitation  
Precipitation 0.45 in 0.14 in 2.12 in (1970)
Month to date precipitation 3.20 3.00  
Year to date precipitation 41.86 38.25  
Sea Level Pressure  
Sea Level Pressure 29.90 in    
Wind  
Wind Speed 7 mph ()    
Max Wind Speed 18 mph    
Max Gust Speed 23 mph    
Visibility 4.4 miles    
Events Rain    
T = Trace of Precipitation, MM = Missing Value Source: Averaged Metar Reports

Daily Weather History Graph

Daily Weather History Graph

Search for Another Location

Airport or City:

Astronomy

Oct. 22, 2019 Rise Set
Actual Time 7:17 AM EDT 6:09 PM EDT
Civil Twilight 6:49 AM EDT 6:37 PM EDT
Nautical Twilight 6:17 AM EDT 7:08 PM EDT
Astronomical Twilight 5:46 AM EDT 7:40 PM EDT
Moon 12:23 AM EDT (10/22) 3:17 PM EDT (10/22)
Length of Visible Light 11h 47m
Length of Day
10h 52m
Last Quarter, 37% of the Moon is Illuminated
Oct 22
Last Quarter
Oct 27
New
Nov 4
First Quarter
Nov 12
Full
Nov 19
Last Quarter

Hourly Weather History & Observations

Time (EDT) Temp. Dew Point Humidity Pressure Visibility Wind Dir Wind Speed Gust Speed Precip Events Conditions
12:53 AM 54.0 °F 51.1 °F 90% 30.09 in 10.0 mi Calm Calm - N/A   Overcast
1:53 AM 55.0 °F 52.0 °F 89% 30.09 in 10.0 mi Calm Calm - N/A   Mostly Cloudy
2:53 AM 53.1 °F 50.0 °F 89% 30.06 in 10.0 mi North 5.8 mph - N/A   Overcast
3:53 AM 53.1 °F 50.0 °F 89% 30.06 in 10.0 mi North 4.6 mph - N/A   Overcast
4:26 AM 54.0 °F 51.1 °F 90% 30.06 in 10.0 mi NNE 3.5 mph - N/A   Overcast
4:53 AM 54.0 °F 51.1 °F 90% 30.05 in 10.0 mi NE 3.5 mph - N/A   Overcast
5:53 AM 55.0 °F 52.0 °F 89% 30.04 in 10.0 mi ENE 5.8 mph - N/A   Overcast
6:53 AM 55.0 °F 52.0 °F 89% 30.04 in 10.0 mi ENE 5.8 mph - N/A   Overcast
7:43 AM 55.0 °F 52.0 °F 89% 30.02 in 10.0 mi East 6.9 mph - N/A   Overcast
7:53 AM 55.0 °F 52.0 °F 89% 30.00 in 10.0 mi East 10.4 mph - N/A   Overcast
8:15 AM 55.0 °F 53.1 °F 93% 30.03 in 10.0 mi East 6.9 mph - N/A   Overcast
8:53 AM 55.0 °F 53.1 °F 93% 30.03 in 7.0 mi East 5.8 mph - N/A   Overcast
9:31 AM 55.0 °F 53.1 °F 93% 30.04 in 2.0 mi East 9.2 mph - N/A   Overcast
9:49 AM 55.4 °F 53.6 °F 94% 30.04 in 5.0 mi ENE 6.9 mph - N/A   Overcast
9:53 AM 55.0 °F 54.0 °F 96% 30.02 in 5.0 mi ENE 6.9 mph - N/A   Overcast
10:00 AM 55.0 °F 54.0 °F 96% 30.04 in 6.0 mi ENE 6.9 mph - N/A   Overcast
10:20 AM 55.9 °F 54.0 °F 93% 30.03 in 1.8 mi ENE 6.9 mph - N/A   Overcast
10:53 AM 55.9 °F 55.9 °F 100% 30.01 in 1.2 mi East 5.8 mph - 0.00 in   Overcast
11:53 AM 57.9 °F 57.0 °F 97% 29.99 in 1.2 mi East 6.9 mph - 0.00 in   Overcast
12:50 PM 60.8 °F 59.0 °F 94% 29.95 in 2.0 mi ESE 10.4 mph - N/A   Overcast
12:53 PM 60.1 °F 59.0 °F 96% 29.94 in 2.5 mi ESE 13.8 mph - N/A   Overcast
1:06 PM 60.1 °F 60.1 °F 100% 29.94 in 3.0 mi ESE 11.5 mph - N/A   Overcast
1:23 PM 61.0 °F 60.1 °F 97% 29.93 in 5.0 mi ESE 10.4 mph 18.4 mph N/A   Overcast
1:53 PM 61.0 °F 60.1 °F 97% 29.90 in 2.0 mi ESE 11.5 mph 21.9 mph N/A   Overcast
2:17 PM 62.1 °F 60.1 °F 93% 29.88 in 5.0 mi ESE 12.7 mph - N/A   Overcast
2:53 PM 62.1 °F 60.1 °F 93% 29.86 in 1.5 mi SE 10.4 mph - 0.00 in Rain Light Rain
3:08 PM 62.1 °F 61.0 °F 96% 29.88 in 2.5 mi SE 9.2 mph - 0.00 in   Overcast
3:18 PM 62.1 °F 60.1 °F 93% 29.88 in 6.0 mi SE 12.7 mph - 0.00 in   Overcast
3:49 PM 62.6 °F 60.8 °F 94% 29.87 in 1.8 mi ESE 10.4 mph - 0.00 in   Overcast
3:53 PM 62.1 °F 60.1 °F 93% 29.85 in 1.5 mi ESE 12.7 mph - 0.00 in Rain Light Rain
4:22 PM 61.0 °F 61.0 °F 100% 29.86 in 1.8 mi ESE 9.2 mph - 0.01 in   Overcast
4:53 PM 61.0 °F 61.0 °F 100% 29.83 in 2.0 mi ESE 9.2 mph - 0.01 in Rain Light Rain
5:11 PM 61.0 °F 61.0 °F 100% 29.85 in 1.5 mi ESE 11.5 mph - 0.00 in Rain Light Rain
5:28 PM 61.0 °F 61.0 °F 100% 29.84 in 3.0 mi ESE 11.5 mph - 0.00 in   Overcast
5:40 PM 61.0 °F 61.0 °F 100% 29.84 in 1.8 mi SE 12.7 mph - 0.00 in   Overcast
5:53 PM 61.0 °F 61.0 °F 100% 29.83 in 1.5 mi ESE 8.1 mph - 0.00 in Rain Light Rain
6:08 PM 62.1 °F 61.0 °F 96% 29.85 in 2.0 mi SE 6.9 mph - 0.01 in Rain Light Rain
6:25 PM 62.1 °F 61.0 °F 96% 29.84 in 3.0 mi ESE 9.2 mph - 0.06 in Rain Light Rain
6:53 PM 62.1 °F 62.1 °F 100% 29.83 in 5.0 mi SE 9.2 mph - 0.11 in Rain Heavy Rain
7:06 PM 62.1 °F 61.0 °F 96% 29.83 in 2.5 mi ESE 12.7 mph - 0.08 in Rain Heavy Rain
7:13 PM 62.1 °F 61.0 °F 96% 29.83 in 3.0 mi ESE 10.4 mph - 0.10 in Rain Rain
7:53 PM 62.1 °F 62.1 °F 100% 29.81 in 9.0 mi ESE 6.9 mph - 0.13 in Rain Light Rain
8:12 PM 62.1 °F 62.1 °F 100% 29.82 in 3.0 mi ESE 11.5 mph - 0.02 in Rain Light Rain
8:21 PM 62.1 °F 62.1 °F 100% 29.81 in 2.5 mi ESE 11.5 mph - 0.04 in Rain Rain
8:31 PM 62.1 °F 62.1 °F 100% 29.80 in 4.0 mi ESE 11.5 mph - 0.04 in Rain Light Rain
8:50 PM 62.6 °F 62.6 °F 100% 29.80 in 2.0 mi ESE 11.5 mph - 0.06 in Rain Light Rain
8:53 PM 63.0 °F 62.1 °F 97% 29.78 in 2.0 mi ESE 10.4 mph - 0.06 in Rain Light Rain
9:17 PM 63.0 °F 63.0 °F 100% 29.79 in 4.0 mi SE 9.2 mph - 0.03 in Rain Light Rain
9:34 PM 63.0 °F 62.1 °F 97% 29.79 in 2.5 mi SE 11.5 mph - 0.05 in Rain Light Rain
9:53 PM 63.0 °F 63.0 °F 100% 29.77 in 3.0 mi SE 10.4 mph - 0.07 in Rain Light Rain
10:43 PM 63.0 °F 62.1 °F 97% 29.79 in 1.8 mi WSW 5.8 mph - 0.02 in Rain Rain
10:53 PM 63.0 °F 62.1 °F 97% 29.78 in 1.8 mi SW 4.6 mph - 0.04 in Rain Light Rain
11:00 PM 63.0 °F 63.0 °F 100% 29.79 in 2.0 mi SW 4.6 mph - 0.00 in Rain Light Rain
11:18 PM 63.0 °F 62.1 °F 97% 29.79 in 2.0 mi WSW 3.5 mph - 0.01 in Rain Light Rain
11:24 PM 63.0 °F 62.1 °F 97% 29.79 in 3.0 mi WSW 4.6 mph - 0.01 in Rain Light Rain
11:33 PM 63.0 °F 62.1 °F 97% 29.79 in 6.0 mi West 6.9 mph - 0.01 in   Overcast
11:53 PM 63.0 °F 61.0 °F 93% 29.78 in 3.0 mi WNW 8.1 mph - 0.01 in Rain Light Rain
11:59 PM 62.1 °F 61.0 °F 96% 29.79 in 1.8 mi WNW 8.1 mph - 0.01 in Rain Light Rain